Location: Unspecified
(0.0000°N, 0.0000°E)
Time: 23:38:16
(UTC+00:00)

Vanguard 1 Rocket - Visible Passes

Search period start: 27 October 2021 00:00
Search period end: 06 November 2021 00:00
Orbit: 650 x 4225 km, 34.3° (Epoch: 26 October)

Date Brightness Start Highest point End Pass type
(mag) Time Alt. Az. Time Alt. Az. Time Alt. Az.
27 Oct 11.2 02:46:29 10° S 02:53:05 13° SSE 03:01:19 10° SE visible
27 Oct 11.3 05:10:20 10° SSW 05:28:30 39° SE 05:51:40 10° E visible
27 Oct 8.7 18:10:32 10° N 18:12:56 13° NNE 18:15:05 10° NE visible
28 Oct 11.2 03:59:08 10° SSW 04:12:44 26° SSE 04:31:26 10° E visible
28 Oct 7.3 19:22:40 10° NW 19:26:17 43° NNW 19:26:17 43° NNW visible
29 Oct 11.2 02:49:07 10° S 02:57:11 16° SSE 03:07:43 10° ESE visible
29 Oct 11.2 05:12:39 10° SSW 05:31:14 46° SE 05:55:36 10° ENE visible
29 Oct 8.2 18:11:51 10° NNW 18:16:12 23° NNE 18:19:36 11° E visible
30 Oct 11.2 04:01:31 10° SSW 04:15:56 31° SE 04:36:26 10° E visible
30 Oct 6.6 19:25:27 10° WNW 19:30:19 78° SW 19:30:19 78° SW visible
31 Oct 11.1 02:51:27 10° S 03:00:55 19° SSE 03:13:58 10° ESE visible
31 Oct 11.2 05:15:01 10° SW 05:33:43 55° SE 05:59:05 10° ENE visible
31 Oct 7.5 18:13:54 10° NW 18:19:23 39° NNE 18:23:32 10° ESE visible
01 Nov 11.1 04:03:50 10° SSW 04:18:46 37° SE 04:40:53 10° E visible
01 Nov 7.8 19:28:37 10° WNW 19:33:15 41° SW 19:34:33 32° S visible
02 Nov 11.0 02:53:40 10° SSW 03:04:16 23° SE 03:19:43 10° E visible
02 Nov 11.0 05:17:25 10° SW 05:36:02 65° SE 06:02:11 10° ENE visible
02 Nov 6.9 18:16:22 10° NW 18:22:27 71° NE 18:26:50 10° ESE visible
03 Nov 11.1 01:45:57 10° SSE 01:49:56 12° SSE 01:54:39 10° SE visible
03 Nov 11.0 04:06:10 10° SSW 04:21:20 45° SE 04:44:46 10° ENE visible
03 Nov 8.9 19:32:16 10° W 19:36:09 23° SW 19:38:56 13° S visible
04 Nov 10.9 02:55:53 10° SSW 03:07:15 28° SE 03:24:49 10° E visible
04 Nov 7.4 18:19:11 10° WNW 18:25:23 65° SW 18:29:48 10° SE visible
05 Nov 11.0 01:47:09 10° S 01:53:28 15° SE 02:01:48 10° ESE visible
05 Nov 10.8 04:08:34 10° SW 04:23:43 54° SE 04:48:10 10° ENE visible
05 Nov 9.5 19:36:47 10° WSW 19:39:04 13° SW 19:41:14 10° S visible
